Regional Weather Roundup
Issued by NWS

Home | Current Version | Previous Version | Text Only | Print | Product List | Glossary Off
Versions: 1 2 3 4 5 6 7 8 9 10 11 12 13 14 15 16 17 18 19 20 21 22 23 24 25 26 27 28 29 30 31 32 33 34 35 36 37 38 39 40 41 42 43 44 45 46 47 48 49 50

000
ASUS43 KLSX 021359
RWRMO

WEATHER SUMMARY FOR MISSOURI
NATIONAL WEATHER SERVICE SPRINGFIELD MO
900 AM CDT TUE JUN 02 2015

NOTE: "FAIR" INDICATES FEW OR NO CLOUDS BELOW 12,000 FEET WITH NO
       SIGNIFICANT WEATHER AND/OR OBSTRUCTIONS TO VISIBILITY.
       CURRENT SKY AND/OR WEATHER CONDITIONS ARE NOT AVAILABLE FOR
       CHILLICOTHE AND FARMINGTON.

MOZ001>031-035>038-043-044-053-054-021500-
...NORTHERN AND WESTERN MISSOURI...

CITY           SKY/WX    TMP DP  RH WIND       PRES   REMARKS
KANSAS CTY INT PTSUNNY   62  54  74 SE15      30.10F
KANSAS C DTWN  PTSUNNY   63  53  70 SE10      30.10F
LEE`S SUMMIT   PTSUNNY   61  53  75 SE8       30.12S
ST JOSEPH      CLOUDY    61  54  77 S13       30.11R
CHILLICOTHE      N/A     63  54  72 S6        30.12F

$$
MOZ066>068-077>081-088>096-101>105-021500-
...SOUTHWEST MISSOURI...

CITY           SKY/WX    TMP DP  RH WIND       PRES   REMARKS
SPRINGFIELD    CLOUDY    62  57  83 SE10      30.10F
JOPLIN         CLOUDY    64  60  87 SE5       30.09F

$$
MOZ032>034-039>042-045>050-055>058-069>072-021500-
...CENTRAL MISSOURI...

CITY           SKY/WX    TMP DP  RH WIND       PRES   REMARKS
COLUMBIA       CLOUDY    63  57  81 SE5       30.14S
JEFFERSON CITY CLOUDY    62  56  80 E5        30.14S
ROLLA          CLOUDY    60  56  86 CALM      30.14R
SEDALIA        CLOUDY    63  56  78 SE12      30.13F
OSAGE BEACH    CLOUDY    63  55  77 E5        30.14S

$$
MOZ051-052-059>065-021500-
...EAST CENTRAL MISSOURI...

CITY           SKY/WX    TMP DP  RH WIND       PRES   REMARKS
ST LOUIS INTL  MOSUNNY   65  53  65 E5        30.15S
SPIRIT OF STL  PTSUNNY   64  54  69 E6        30.14R
ST CHARLES     SUNNY     65  54  67 NE6       30.15R

$$
MOZ072>076-082>087-097>100-106>115-021500-
...SOUTH CENTRAL AND SOUTHEAST MISSOURI...

CITY           SKY/WX    TMP DP  RH WIND       PRES   REMARKS
CAPE GIRARDEAU CLOUDY    61  55  81 NE8       30.13R
FARMINGTON     CLOUDY    57  55  94 NE3       30.18R
POPLAR BLUFF   CLOUDY    61  55  81 N8        30.12R
WEST PLAINS    PTSUNNY   62  54  74 E3        30.14F

$$


USA.gov is the U.S. government's official web portal to all federal, state and local government web resources and services.